THORAD DELTA 1 DEB, 8163

Orbit data source: Space-Track

THORAD DELTA 1 DEB, 8163 is space debris in SSO originally from a launch on Fri, 15 Nov 1974 UTC launched from the Air Force Western Test Range (AFWTR). Debris objects in space refer to the collection of defunct objects orbiting the Earth. Examples of debris include non-operational satellites, rocket bodies, and fragments generated from explosions, collisions, or faulty payload assembly.

Loading next visibility...
Identifier
8163, 1974-089AD
Orbit
SSO
Country
Flag of USUS
Related business
Manufacturer
Unknown
Mission
Spacecraft
Bus & Motor
Unknown
Mass
Unknown
Launch date (UTC)
1974-11-15 (51 years ago)
Launch vehicle
Unknown
Launch site
Air Force Western Test Range (AFWTR)
Object type
Payload
Rocket body
Debris
Shape & HBR
Unknown shape, 1.1 m
Radar Cross Section
Small (<0.1 m²)

Expand to show TLE details & history
Last TLE update: 4 days ago

TLE from 4 days ago
0 THORAD DELTA 1 DEB
1 08163U 74089AD  25299.30450218  .00000333  00000-0  23676-2 0  9991
2 08163 102.5003 310.6228 0333966 123.7017 239.6354 12.39117489281710
Epoch: 2025-10-26T07:18Z
TLE epoch observation values (Epoch: 2025-10-26T07:18:28.988Z)
Latitude
0.00003°
Longitude
166.07939°
Altitude
1,652.46 km
Speed
6.984 km/s
True Right ascension
20h 42m 29s
True Declination
0° 00' 00"
Sunlit
Object was in daylight at epoch
Visualization orbit readout
Latitude
Unknown
Longitude
Unknown
Altitude
Unknown
Speed
Unknown
Apparent Right ascension
Unknown
Apparent Declination
Unknown
Sunlit
N/A
Visualization observer readout
Local Sidereal Time
02:23:53
Azimuth
Unknown
Elevation
Unknown
Doppler factor
Unknown
Orbital elements
Apogee altitude
1,771.317 km
Perigee altitude
1,244.58 km
Semi-major axis
7,886.086 km
Eccentricity
0.0334
Inclination
102.5003°
RAAN
310.6228°
Arg. of periapsis
123.7017°
True anomaly
236.4034°
Mean anomaly
239.6354°
Eccentric anomaly
238.01245°
Mean motion
3.09921 °/min
Orbital period
116.16 mins
BSTAR
0.0023676
Loading maneuver chart data...
Computing Atmospheric mass density...

Documentation

Showing up to 5 results
|